Wetterdaten: Dienstag, 10.12.2013
Datum Zeit Temperatur Luftfeuchte Luftdruck Regen Wind Richtung Richtung Taupunkt Windchill Windben
10.12.2013 00:00 2,1 C 69 % 1032,9 hPa 0,0 l/m 1,6 km/h (1 Bft) O 90 -3,0 C 2,3 C 4,8 km/h (1 Bft)
10.12.2013 00:05 2,3 C 68 % 1032,8 hPa 0,0 l/m 2,4 km/h (1 Bft) NO 45 -3,0 C 2,4 C 0,0 km/h (0 Bft)
10.12.2013 00:10 1,9 C 69 % 1032,8 hPa 0,0 l/m 1,6 km/h (1 Bft) NO 45 -3,2 C 2,5 C 0,0 km/h (0 Bft)
10.12.2013 00:15 1,8 C 69 % 1032,8 hPa 0,0 l/m 0,0 km/h (0 Bft) O 90 -3,3 C 2,5 C 0,0 km/h (0 Bft)
10.12.2013 00:20 1,8 C 69 % 1032,8 hPa 0,0 l/m 0,0 km/h (0 Bft) NO 45 -3,3 C 2,4 C 0,0 km/h (0 Bft)
10.12.2013 00:25 1,7 C 71 % 1032,9 hPa 0,0 l/m 0,0 km/h (0 Bft) NO 45 -3,0 C 2,3 C 0,0 km/h (0 Bft)
10.12.2013 00:30 2,1 C 68 % 1032,9 hPa 0,0 l/m 1,3 km/h (1 Bft) NO 45 -3,2 C 2,3 C 4,5 km/h (1 Bft)
10.12.2013 00:35 2,1 C 68 % 1032,9 hPa 0,0 l/m 1,8 km/h (1 Bft) O 90 -3,2 C 2,4 C 0,0 km/h (0 Bft)
10.12.2013 00:40 1,8 C 69 % 1032,9 hPa 0,0 l/m 0,5 km/h (0 Bft) O-NO 67 -3,3 C 2,4 C 0,0 km/h (0 Bft)
10.12.2013 00:45 1,8 C 69 % 1032,8 hPa 0,0 l/m 0,0 km/h (0 Bft) N-NO 22 -3,3 C 2,4 C 0,0 km/h (0 Bft)
10.12.2013 00:50 1,8 C 69 % 1032,8 hPa 0,0 l/m 0,0 km/h (0 Bft) NO 45 -3,3 C 2,4 C 0,0 km/h (0 Bft)
10.12.2013 00:55 1,7 C 70 % 1032,8 hPa 0,0 l/m 0,0 km/h (0 Bft) NO 45 -3,2 C 2,3 C 0,0 km/h (0 Bft)
10.12.2013 01:00 1,7 C 70 % 1032,8 hPa 0,0 l/m 0,5 km/h (0 Bft) O-SO 112 -3,2 C 2,3 C 0,0 km/h (0 Bft)
10.12.2013 01:05 1,6 C 73 % 1032,8 hPa 0,0 l/m 0,6 km/h (0 Bft) N-NW 337 -2,7 C 2,3 C 1,9 km/h (1 Bft)
10.12.2013 01:10 1,7 C 73 % 1032,8 hPa 0,0 l/m 1,1 km/h (1 Bft) NO 45 -2,6 C 2,1 C 3,4 km/h (1 Bft)
10.12.2013 01:15 1,9 C 72 % 1032,8 hPa 0,0 l/m 2,3 km/h (1 Bft) O-NO 67 -2,6 C 2,1 C 3,2 km/h (1 Bft)
10.12.2013 01:20 2,0 C 70 % 1032,8 hPa 0,0 l/m 2,3 km/h (1 Bft) O-SO 112 -2,9 C 2,2 C 4,7 km/h (1 Bft)
10.12.2013 01:25 1,7 C 71 % 1032,8 hPa 0,0 l/m 1,1 km/h (1 Bft) O-SO 112 -3,0 C 2,1 C 0,0 km/h (0 Bft)
10.12.2013 01:30 1,4 C 71 % 1032,8 hPa 0,0 l/m 0,0 km/h (0 Bft) O-SO 112 -3,3 C 1,8 C 0,0 km/h (0 Bft)
10.12.2013 01:35 1,4 C 71 % 1032,8 hPa 0,0 l/m 0,0 km/h (0 Bft) O-SO 112 -3,3 C 1,6 C 0,0 km/h (0 Bft)
10.12.2013 01:40 1,2 C 71 % 1032,8 hPa 0,0 l/m 0,3 km/h (0 Bft) O-SO 112 -3,5 C 1,2 C 2,9 km/h (1 Bft)
10.12.2013 01:45 1,3 C 71 % 1032,9 hPa 0,0 l/m 0,6 km/h (0 Bft) O 90 -3,4 C 1,0 C 0,0 km/h (0 Bft)
10.12.2013 01:50 0,9 C 72 % 1032,9 hPa 0,0 l/m 0,5 km/h (0 Bft) O-SO 112 -3,6 C 0,8 C 0,0 km/h (0 Bft)
10.12.2013 01:55 1,1 C 72 % 1032,9 hPa 0,0 l/m 0,5 km/h (0 Bft) O-SO 112 -3,4 C 0,8 C 2,3 km/h (1 Bft)
10.12.2013 02:00 1,6 C 72 % 1032,9 hPa 0,0 l/m 1,8 km/h (1 Bft) O-NO 67 -2,9 C 0,9 C 6,3 km/h (2 Bft)
10.12.2013 02:05 1,6 C 72 % 1033,0 hPa 0,0 l/m 2,6 km/h (1 Bft) O-NO 67 -2,9 C 0,9 C 2,6 km/h (1 Bft)
10.12.2013 02:10 1,2 C 72 % 1033,0 hPa 0,0 l/m 1,8 km/h (1 Bft) N 360 -3,3 C 1,0 C 0,0 km/h (0 Bft)
10.12.2013 02:15 1,0 C 73 % 1033,0 hPa 0,0 l/m 0,3 km/h (0 Bft) N 360 -3,3 C 1,0 C 0,0 km/h (0 Bft)
10.12.2013 02:20 1,0 C 73 % 1033,0 hPa 0,0 l/m 0,8 km/h (0 Bft) O-SO 112 -3,3 C 0,6 C 6,4 km/h (2 Bft)
10.12.2013 02:25 1,1 C 72 % 1033,2 hPa 0,0 l/m 1,1 km/h (1 Bft) O-SO 112 -3,4 C 0,5 C 0,0 km/h (0 Bft)
10.12.2013 02:30 0,5 C 73 % 1033,2 hPa 0,0 l/m 0,8 km/h (0 Bft) O-SO 112 -3,8 C 0,2 C 0,0 km/h (0 Bft)
10.12.2013 02:35 0,4 C 73 % 1033,2 hPa 0,0 l/m 0,0 km/h (0 Bft) O-SO 112 -3,9 C 0,0 C 0,0 km/h (0 Bft)
10.12.2013 02:40 0,0 C 73 % 1033,2 hPa 0,0 l/m 0,0 km/h (0 Bft) O-SO 112 -4,2 C -0,7 C 0,0 km/h (0 Bft)
10.12.2013 02:45 0,3 C 74 % 1033,2 hPa 0,0 l/m 0,5 km/h (0 Bft) O-NO 67 -3,8 C -0,9 C 3,7 km/h (1 Bft)
10.12.2013 02:50 0,4 C 72 % 1033,2 hPa 0,0 l/m 0,6 km/h (0 Bft) O-NO 67 -4,0 C -0,9 C 0,0 km/h (0 Bft)
10.12.2013 02:55 -0,5 C 73 % 1033,2 hPa 0,0 l/m 0,5 km/h (0 Bft) O-NO 67 -4,7 C -1,0 C 0,0 km/h (0 Bft)
10.12.2013 03:00 -1,0 C 74 % 1033,2 hPa 0,0 l/m 0,0 km/h (0 Bft) O-NO 67 -5,0 C -1,2 C 0,0 km/h (0 Bft)
10.12.2013 03:05 -0,9 C 75 % 1033,1 hPa 0,0 l/m 0,5 km/h (0 Bft) NO 45 -4,8 C -1,4 C 2,1 km/h (1 Bft)
10.12.2013 03:10 -1,2 C 76 % 1033,1 hPa 0,0 l/m 0,8 km/h (0 Bft) N 360 -4,9 C -1,4 C 0,0 km/h (0 Bft)
10.12.2013 03:15 -1,4 C 76 % 1033,1 hPa 0,0 l/m 0,6 km/h (0 Bft) N 360 -5,1 C -1,5 C 0,0 km/h (0 Bft)
10.12.2013 03:20 -1,7 C 76 % 1033,1 hPa 0,0 l/m 0,0 km/h (0 Bft) N 360 -5,4 C -1,7 C 0,0 km/h (0 Bft)
10.12.2013 03:25 -1,8 C 76 % 1032,9 hPa 0,0 l/m 0,0 km/h (0 Bft) N 360 -5,5 C -1,9 C 0,0 km/h (0 Bft)
10.12.2013 03:30 -2,0 C 76 % 1032,9 hPa 0,0 l/m 0,0 km/h (0 Bft) N 360 -5,6 C -2,0 C 0,0 km/h (0 Bft)
10.12.2013 03:35 -1,9 C 77 % 1032,9 hPa 0,0 l/m 0,0 km/h (0 Bft) N 360 -5,4 C -2,1 C 0,0 km/h (0 Bft)
10.12.2013 03:40 -2,1 C 77 % 1032,9 hPa 0,0 l/m 0,0 km/h (0 Bft) N 360 -5,6 C -2,3 C 0,0 km/h (0 Bft)
10.12.2013 03:45 -2,2 C 78 % 1033,0 hPa 0,0 l/m 0,2 km/h (0 Bft) O-NO 67 -5,5 C -2,4 C 0,0 km/h (0 Bft)
10.12.2013 03:50 -1,9 C 78 % 1033,0 hPa 0,0 l/m 0,5 km/h (0 Bft) NO 45 -5,2 C -2,5 C 0,0 km/h (0 Bft)
10.12.2013 03:55 -1,6 C 79 % 1033,0 hPa 0,0 l/m 0,6 km/h (0 Bft) O-NO 67 -4,8 C -2,4 C 0,0 km/h (0 Bft)
10.12.2013 04:00 -2,0 C 78 % 1033,0 hPa 0,0 l/m 0,3 km/h (0 Bft) N 360 -5,3 C -2,3 C 0,0 km/h (0 Bft)
10.12.2013 04:05 -2,1 C 78 % 1032,9 hPa 0,0 l/m 0,3 km/h (0 Bft) NO 45 -5,4 C -2,5 C 0,0 km/h (0 Bft)
10.12.2013 04:10 -2,4 C 77 % 1032,9 hPa 0,0 l/m 0,2 km/h (0 Bft) NO 45 -5,9 C -2,5 C 0,0 km/h (0 Bft)
10.12.2013 04:15 -2,0 C 78 % 1032,9 hPa 0,0 l/m 0,0 km/h (0 Bft) N-NO 22 -5,3 C -2,6 C 0,0 km/h (0 Bft)
10.12.2013 04:20 -1,9 C 78 % 1032,9 hPa 0,0 l/m 0,0 km/h (0 Bft) NO 45 -5,2 C -2,4 C 0,0 km/h (0 Bft)
10.12.2013 04:25 -2,2 C 78 % 1032,8 hPa 0,0 l/m 0,0 km/h (0 Bft) N-NO 22 -5,5 C -2,3 C 0,0 km/h (0 Bft)
10.12.2013 04:30 -2,3 C 78 % 1032,8 hPa 0,0 l/m 0,0 km/h (0 Bft) NO 45 -5,6 C -2,5 C 0,0 km/h (0 Bft)
10.12.2013 04:35 -2,5 C 78 % 1032,8 hPa 0,0 l/m 0,0 km/h (0 Bft) NO 45 -5,8 C -2,8 C 1,6 km/h (1 Bft)
10.12.2013 04:40 -2,1 C 78 % 1032,8 hPa 0,0 l/m 0,6 km/h (0 Bft) NO 45 -5,4 C -2,8 C 0,0 km/h (0 Bft)
10.12.2013 04:45 -2,7 C 78 % 1032,9 hPa 0,0 l/m 0,8 km/h (0 Bft) N-NW 337 -6,0 C -2,9 C 0,0 km/h (0 Bft)
10.12.2013 04:50 -3,0 C 78 % 1032,9 hPa 0,0 l/m 0,2 km/h (0 Bft) N-NW 337 -6,3 C -2,9 C 0,0 km/h (0 Bft)
10.12.2013 04:55 -3,0 C 78 % 1032,9 hPa 0,0 l/m 0,0 km/h (0 Bft) N 360 -6,3 C -3,0 C 0,0 km/h (0 Bft)
10.12.2013 05:00 -3,0 C 78 % 1032,9 hPa 0,0 l/m 0,0 km/h (0 Bft) N 360 -6,3 C -3,1 C 1,6 km/h (1 Bft)
10.12.2013 05:05 -2,7 C 79 % 1033,1 hPa 0,0 l/m 0,5 km/h (0 Bft) N 360 -5,8 C -3,1 C 1,8 km/h (1 Bft)
10.12.2013 05:10 -2,5 C 79 % 1033,1 hPa 0,0 l/m 0,5 km/h (0 Bft) N 360 -5,6 C -2,9 C 0,0 km/h (0 Bft)
10.12.2013 05:15 -2,4 C 79 % 1033,1 hPa 0,0 l/m 0,2 km/h (0 Bft) N 360 -5,5 C -3,0 C 0,0 km/h (0 Bft)
10.12.2013 05:20 -2,8 C 79 % 1033,1 hPa 0,0 l/m 0,0 km/h (0 Bft) N 360 -5,9 C -3,0 C 0,0 km/h (0 Bft)
10.12.2013 05:25 -3,0 C 79 % 1033,4 hPa 0,0 l/m 0,0 km/h (0 Bft) N 360 -6,1 C -3,2 C 0,0 km/h (0 Bft)
10.12.2013 05:30 -3,5 C 78 % 1033,4 hPa 0,0 l/m 0,0 km/h (0 Bft) N-NW 337 -6,8 C -3,4 C 0,0 km/h (0 Bft)
10.12.2013 05:35 -3,5 C 78 % 1033,4 hPa 0,0 l/m 0,0 km/h (0 Bft) O 90 -6,8 C -3,4 C 1,6 km/h (1 Bft)
10.12.2013 05:40 -3,4 C 79 % 1033,4 hPa 0,0 l/m 0,2 km/h (0 Bft) O 90 -6,5 C -3,3 C 0,0 km/h (0 Bft)
10.12.2013 05:45 -3,4 C 79 % 1033,3 hPa 0,0 l/m 0,2 km/h (0 Bft) NO 45 -6,5 C -3,5 C 0,0 km/h (0 Bft)
10.12.2013 05:50 -3,7 C 79 % 1033,3 hPa 0,0 l/m 0,0 km/h (0 Bft) NO 45 -6,8 C -3,6 C 0,0 km/h (0 Bft)
10.12.2013 05:55 -3,8 C 79 % 1033,3 hPa 0,0 l/m 0,0 km/h (0 Bft) NO 45 -6,9 C -3,8 C 0,0 km/h (0 Bft)
10.12.2013 06:00 -3,5 C 81 % 1033,3 hPa 0,0 l/m 0,0 km/h (0 Bft) NO 45 -6,3 C -3,8 C 0,0 km/h (0 Bft)
10.12.2013 06:05 -3,7 C 81 % 1033,7 hPa 0,0 l/m 0,0 km/h (0 Bft) NO 45 -6,5 C -3,8 C 0,0 km/h (0 Bft)
10.12.2013 06:10 -2,9 C 82 % 1033,7 hPa 0,0 l/m 0,0 km/h (0 Bft) O 90 -5,5 C -3,8 C 0,0 km/h (0 Bft)
10.12.2013 06:15 -3,2 C 82 % 1033,7 hPa 0,0 l/m 0,0 km/h (0 Bft) O 90 -5,8 C -3,8 C 0,0 km/h (0 Bft)
10.12.2013 06:20 -2,4 C 82 % 1033,7 hPa 0,0 l/m 0,5 km/h (0 Bft) O-NO 67 -5,0 C -3,6 C 0,0 km/h (0 Bft)
10.12.2013 06:25 -3,2 C 81 % 1033,6 hPa 0,0 l/m 0,5 km/h (0 Bft) O-SO 112 -6,0 C -3,5 C 0,0 km/h (0 Bft)
10.12.2013 06:30 -3,7 C 81 % 1033,6 hPa 0,0 l/m 0,0 km/h (0 Bft) O-SO 112 -6,5 C -3,7 C 0,0 km/h (0 Bft)
10.12.2013 06:35 -3,8 C 81 % 1033,6 hPa 0,0 l/m 0,0 km/h (0 Bft) NO 45 -6,6 C -3,8 C 0,0 km/h (0 Bft)
10.12.2013 06:40 -4,0 C 81 % 1033,6 hPa 0,0 l/m 0,0 km/h (0 Bft) NO 45 -6,8 C -3,9 C 0,0 km/h (0 Bft)
10.12.2013 06:45 -4,2 C 81 % 1033,5 hPa 0,0 l/m 0,0 km/h (0 Bft) NO 45 -7,0 C -4,0 C 0,0 km/h (0 Bft)
10.12.2013 06:50 -3,8 C 82 % 1033,5 hPa 0,0 l/m 0,0 km/h (0 Bft) NO 45 -6,4 C -3,9 C 0,0 km/h (0 Bft)
10.12.2013 06:55 -3,9 C 82 % 1033,5 hPa 0,0 l/m 0,0 km/h (0 Bft) O-SO 112 -6,5 C -3,8 C 0,0 km/h (0 Bft)
10.12.2013 07:00 -4,1 C 82 % 1033,5 hPa 0,0 l/m 0,0 km/h (0 Bft) O-SO 112 -6,7 C -3,9 C 0,0 km/h (0 Bft)
10.12.2013 07:05 -3,9 C 82 % 1033,6 hPa 0,0 l/m 0,0 km/h (0 Bft) O-SO 112 -6,5 C -3,8 C 0,0 km/h (0 Bft)
10.12.2013 07:10 -4,0 C 83 % 1033,6 hPa 0,0 l/m 0,0 km/h (0 Bft) O 90 -6,4 C -3,8 C 0,0 km/h (0 Bft)
10.12.2013 07:15 -4,1 C 83 % 1033,6 hPa 0,0 l/m 0,0 km/h (0 Bft) O 90 -6,5 C -3,9 C 0,0 km/h (0 Bft)
10.12.2013 07:20 -4,3 C 83 % 1033,6 hPa 0,0 l/m 0,0 km/h (0 Bft) O-SO 112 -6,7 C -3,9 C 0,0 km/h (0 Bft)
10.12.2013 07:25 -3,8 C 84 % 1033,6 hPa 0,0 l/m 0,0 km/h (0 Bft) NO 45 -6,1 C -4,0 C 0,0 km/h (0 Bft)
10.12.2013 07:30 -3,6 C 85 % 1033,6 hPa 0,0 l/m 0,0 km/h (0 Bft) N-NO 22 -5,7 C -3,9 C 0,0 km/h (0 Bft)
10.12.2013 07:35 -4,0 C 84 % 1033,6 hPa 0,0 l/m 0,0 km/h (0 Bft) NO 45 -6,3 C -3,9 C 0,0 km/h (0 Bft)
10.12.2013 07:40 -4,0 C 84 % 1033,6 hPa 0,0 l/m 0,0 km/h (0 Bft) NO 45 -6,3 C -3,9 C 0,0 km/h (0 Bft)
10.12.2013 07:45 -3,9 C 85 % 1033,4 hPa 0,0 l/m 0,0 km/h (0 Bft) NO 45 -6,0 C -3,9 C 0,0 km/h (0 Bft)
10.12.2013 07:50 -3,9 C 85 % 1033,4 hPa 0,0 l/m 0,0 km/h (0 Bft) N-NO 22 -6,0 C -3,9 C 0,0 km/h (0 Bft)
10.12.2013 07:55 -4,0 C 84 % 1033,4 hPa 0,0 l/m 0,0 km/h (0 Bft) NO 45 -6,3 C -3,9 C 0,0 km/h (0 Bft)
10.12.2013 08:00 -3,9 C 85 % 1033,4 hPa 0,0 l/m 0,0 km/h (0 Bft) NO 45 -6,0 C -4,0 C 0,0 km/h (0 Bft)
10.12.2013 08:05 -4,0 C 85 % 1033,6 hPa 0,0 l/m 0,0 km/h (0 Bft) N-NO 22 -6,1 C -3,9 C 0,0 km/h (0 Bft)
10.12.2013 08:10 -3,9 C 85 % 1033,6 hPa 0,0 l/m 0,0 km/h (0 Bft) N-NO 22 -6,0 C -3,8 C 0,0 km/h (0 Bft)
10.12.2013 08:15 -4,0 C 85 % 1033,6 hPa 0,0 l/m 0,0 km/h (0 Bft) NO 45 -6,1 C -3,8 C 0,0 km/h (0 Bft)
10.12.2013 08:20 -3,8 C 85 % 1033,6 hPa 0,0 l/m 0,0 km/h (0 Bft) O 90 -5,9 C -3,8 C 0,0 km/h (0 Bft)
10.12.2013 08:25 -3,6 C 85 % 1033,5 hPa 0,0 l/m 0,0 km/h (0 Bft) N-NO 22 -5,7 C -3,8 C 0,0 km/h (0 Bft)
10.12.2013 08:30 -3,5 C 85 % 1033,5 hPa 0,0 l/m 0,0 km/h (0 Bft) N-NO 22 -5,6 C -3,7 C 0,0 km/h (0 Bft)
10.12.2013 08:35 -3,6 C 85 % 1033,5 hPa 0,0 l/m 0,0 km/h (0 Bft) N-NO 22 -5,7 C -3,6 C 0,0 km/h (0 Bft)
10.12.2013 08:40 -3,2 C 85 % 1033,5 hPa 0,0 l/m 0,2 km/h (0 Bft) O 90 -5,4 C -3,5 C 0,0 km/h (0 Bft)
10.12.2013 08:45 -3,0 C 86 % 1033,3 hPa 0,0 l/m 0,5 km/h (0 Bft) O-NO 67 -5,0 C -3,3 C 0,0 km/h (0 Bft)
10.12.2013 08:50 -3,2 C 85 % 1033,3 hPa 0,0 l/m 0,3 km/h (0 Bft) O 90 -5,4 C -3,1 C 0,0 km/h (0 Bft)
10.12.2013 08:55 -3,1 C 85 % 1033,3 hPa 0,0 l/m 0,0 km/h (0 Bft) O-NO 67 -5,3 C -3,1 C 0,0 km/h (0 Bft)
10.12.2013 09:00 -3,3 C 85 % 1033,3 hPa 0,0 l/m 0,0 km/h (0 Bft) O-NO 67 -5,5 C -3,0 C 0,0 km/h (0 Bft)
10.12.2013 09:05 -3,2 C 85 % 1033,2 hPa 0,0 l/m 0,0 km/h (0 Bft) O-SO 112 -5,4 C -3,0 C 0,0 km/h (0 Bft)
10.12.2013 09:10 -3,2 C 85 % 1033,2 hPa 0,0 l/m 0,0 km/h (0 Bft) O-SO 112 -5,4 C -2,9 C 0,0 km/h (0 Bft)
10.12.2013 09:15 -3,3 C 85 % 1033,2 hPa 0,0 l/m 0,0 km/h (0 Bft) O-SO 112 -5,5 C -2,9 C 0,0 km/h (0 Bft)
10.12.2013 09:20 -2,3 C 85 % 1033,2 hPa 0,0 l/m 0,8 km/h (0 Bft) O 90 -4,5 C -2,9 C 3,4 km/h (1 Bft)
10.12.2013 09:25 -1,6 C 85 % 1033,2 hPa 0,0 l/m 1,8 km/h (1 Bft) O 90 -3,8 C -2,5 C 3,4 km/h (1 Bft)
10.12.2013 09:30 -1,8 C 85 % 1033,2 hPa 0,0 l/m 1,6 km/h (1 Bft) NO 45 -4,0 C -2,2 C 0,0 km/h (0 Bft)
10.12.2013 09:35 -2,1 C 84 % 1033,2 hPa 0,0 l/m 0,8 km/h (0 Bft) NO 45 -4,4 C -2,0 C 0,0 km/h (0 Bft)
10.12.2013 09:40 -2,4 C 83 % 1033,2 hPa 0,0 l/m 0,0 km/h (0 Bft) O 90 -4,9 C -2,0 C 0,0 km/h (0 Bft)
10.12.2013 09:45 -1,7 C 84 % 1033,2 hPa 0,0 l/m 0,0 km/h (0 Bft) O-SO 112 -4,0 C -2,0 C 0,0 km/h (0 Bft)
10.12.2013 09:50 -2,1 C 83 % 1033,2 hPa 0,0 l/m 0,0 km/h (0 Bft) NO 45 -4,6 C -1,9 C 0,0 km/h (0 Bft)
10.12.2013 09:55 -2,1 C 83 % 1033,2 hPa 0,0 l/m 0,0 km/h (0 Bft) NO 45 -4,6 C -1,7 C 0,0 km/h (0 Bft)
10.12.2013 10:00 -1,7 C 83 % 1033,2 hPa 0,0 l/m 0,0 km/h (0 Bft) NO 45 -4,2 C -1,5 C 0,0 km/h (0 Bft)
10.12.2013 10:05 -1,7 C 83 % 1033,4 hPa 0,0 l/m 0,0 km/h (0 Bft) O-SO 112 -4,2 C -1,3 C 0,0 km/h (0 Bft)
10.12.2013 10:10 -1,1 C 83 % 1033,4 hPa 0,0 l/m 0,0 km/h (0 Bft) O-SO 112 -3,6 C -1,0 C 0,0 km/h (0 Bft)
10.12.2013 10:15 -0,9 C 83 % 1033,4 hPa 0,0 l/m 0,0 km/h (0 Bft) O-SO 112 -3,4 C -0,9 C 0,0 km/h (0 Bft)
10.12.2013 10:20 -0,9 C 82 % 1033,4 hPa 0,0 l/m 0,0 km/h (0 Bft) O-SO 112 -3,6 C -0,7 C 0,0 km/h (0 Bft)
10.12.2013 10:25 -0,5 C 82 % 1033,3 hPa 0,0 l/m 0,0 km/h (0 Bft) O-SO 112 -3,2 C -0,4 C 0,0 km/h (0 Bft)
10.12.2013 10:30 0,3 C 80 % 1033,3 hPa 0,0 l/m 0,5 km/h (0 Bft) O 90 -2,7 C 0,1 C 2,4 km/h (1 Bft)
10.12.2013 10:35 0,6 C 79 % 1033,3 hPa 0,0 l/m 1,1 km/h (1 Bft) O-SO 112 -2,6 C 0,4 C 2,3 km/h (1 Bft)
10.12.2013 10:40 0,1 C 78 % 1033,3 hPa 0,0 l/m 1,0 km/h (0 Bft) NO 45 -3,3 C 0,5 C 0,0 km/h (0 Bft)
10.12.2013 10:45 0,0 C 78 % 1033,4 hPa 0,0 l/m 0,2 km/h (0 Bft) O-NO 67 -3,4 C 0,6 C 0,0 km/h (0 Bft)
10.12.2013 10:50 0,7 C 78 % 1033,4 hPa 0,0 l/m 0,8 km/h (0 Bft) NO 45 -2,7 C 0,8 C 2,3 km/h (1 Bft)
10.12.2013 10:55 0,8 C 77 % 1033,4 hPa 0,0 l/m 1,4 km/h (1 Bft) NO 45 -2,8 C 1,0 C 0,0 km/h (0 Bft)
10.12.2013 11:00 0,6 C 76 % 1033,4 hPa 0,0 l/m 0,8 km/h (0 Bft) SO 135 -3,1 C 1,3 C 1,8 km/h (1 Bft)
10.12.2013 11:05 0,9 C 76 % 1033,1 hPa 0,0 l/m 0,5 km/h (0 Bft) SO 135 -2,8 C 1,6 C 0,0 km/h (0 Bft)
10.12.2013 11:10 1,3 C 75 % 1033,1 hPa 0,0 l/m 1,0 km/h (0 Bft) O 90 -2,6 C 1,8 C 1,8 km/h (1 Bft)
10.12.2013 11:15 1,2 C 75 % 1033,1 hPa 0,0 l/m 0,6 km/h (0 Bft) NO 45 -2,7 C 1,8 C 0,0 km/h (0 Bft)
10.12.2013 11:20 1,1 C 75 % 1033,1 hPa 0,0 l/m 0,2 km/h (0 Bft) O-NO 67 -2,8 C 1,9 C 0,0 km/h (0 Bft)
10.12.2013 11:25 1,2 C 75 % 1033,1 hPa 0,0 l/m 0,0 km/h (0 Bft) O-NO 67 -2,7 C 2,0 C 0,0 km/h (0 Bft)
10.12.2013 11:30 1,8 C 74 % 1033,1 hPa 0,0 l/m 1,3 km/h (1 Bft) NO 45 -2,3 C 2,2 C 6,4 km/h (2 Bft)
10.12.2013 11:35 2,1 C 72 % 1033,1 hPa 0,0 l/m 2,6 km/h (1 Bft) N-NO 22 -2,4 C 2,7 C 3,9 km/h (1 Bft)
10.12.2013 11:40 2,3 C 72 % 1033,1 hPa 0,0 l/m 3,1 km/h (1 Bft) N-NO 22 -2,2 C 3,2 C 7,6 km/h (2 Bft)
10.12.2013 11:45 2,4 C 71 % 1032,8 hPa 0,0 l/m 1,9 km/h (1 Bft) N-NW 337 -2,3 C 3,7 C 0,0 km/h (0 Bft)
10.12.2013 11:50 2,7 C 71 % 1032,8 hPa 0,0 l/m 1,9 km/h (1 Bft) N-NW 337 -2,0 C 3,9 C 4,5 km/h (1 Bft)
10.12.2013 11:55 2,6 C 69 % 1032,8 hPa 0,0 l/m 2,1 km/h (1 Bft) N-NO 22 -2,5 C 4,1 C 2,7 km/h (1 Bft)
10.12.2013 12:00 2,5 C 69 % 1032,8 hPa 0,0 l/m 3,7 km/h (1 Bft) N 360 -2,6 C 4,0 C 4,8 km/h (1 Bft)
10.12.2013 12:05 2,6 C 69 % 1032,6 hPa 0,0 l/m 3,5 km/h (1 Bft) W-NW 292 -2,5 C 4,4 C 3,1 km/h (1 Bft)
10.12.2013 12:10 3,0 C 68 % 1032,6 hPa 0,0 l/m 2,4 km/h (1 Bft) W-NW 292 -2,3 C 4,8 C 1,6 km/h (1 Bft)
10.12.2013 12:15 3,1 C 68 % 1032,6 hPa 0,0 l/m 1,1 km/h (1 Bft) N-NW 337 -2,2 C 4,9 C 0,0 km/h (0 Bft)
10.12.2013 12:20 3,1 C 68 % 1032,6 hPa 0,0 l/m 0,2 km/h (0 Bft) N-NO 22 -2,2 C 4,9 C 0,0 km/h (0 Bft)
10.12.2013 12:25 3,2 C 68 % 1032,8 hPa 0,0 l/m 0,6 km/h (0 Bft) NW 315 -2,1 C 4,9 C 2,6 km/h (1 Bft)
10.12.2013 12:28 3,5 C 67 % 1032,8 hPa 0,0 l/m 0,8 km/h (0 Bft) N 360 -2,0 C 4,9 C 0,0 km/h (0 Bft)
10.12.2013 12:30 3,5 C 67 % 1032,8 hPa 0,0 l/m 0,8 km/h (0 Bft) N 360 -2,0 C 4,9 C 0,0 km/h (0 Bft)
10.12.2013 12:35 3,4 C 67 % 1032,8 hPa 0,0 l/m 0,5 km/h (0 Bft) NO 45 -2,1 C 4,9 C 2,4 km/h (1 Bft)
10.12.2013 12:40 3,8 C 67 % 1032,8 hPa 0,0 l/m 0,5 km/h (0 Bft) W-NW 292 -1,8 C 5,0 C 0,0 km/h (0 Bft)
10.12.2013 12:45 3,6 C 66 % 1032,9 hPa 0,0 l/m 0,3 km/h (0 Bft) W-NW 292 -2,1 C 5,0 C 0,0 km/h (0 Bft)
10.12.2013 12:50 3,6 C 67 % 1032,9 hPa 0,0 l/m 0,0 km/h (0 Bft) W-NW 292 -1,9 C 5,0 C 0,0 km/h (0 Bft)
10.12.2013 12:55 3,5 C 66 % 1032,9 hPa 0,0 l/m 0,0 km/h (0 Bft) NW 315 -2,2 C 4,8 C 0,0 km/h (0 Bft)
10.12.2013 13:00 4,1 C 65 % 1032,9 hPa 0,0 l/m 1,1 km/h (1 Bft) N 360 -1,9 C 5,0 C 0,0 km/h (0 Bft)
10.12.2013 13:05 4,3 C 65 % 1032,9 hPa 0,0 l/m 1,8 km/h (1 Bft) O-NO 67 -1,7 C 5,1 C 4,0 km/h (1 Bft)
10.12.2013 13:10 4,5 C 64 % 1032,9 hPa 0,0 l/m 2,1 km/h (1 Bft) N-NO 22 -1,7 C 5,1 C 3,1 km/h (1 Bft)
10.12.2013 13:15 4,5 C 63 % 1032,9 hPa 0,0 l/m 2,4 km/h (1 Bft) N 360 -1,9 C 5,3 C 3,2 km/h (1 Bft)
10.12.2013 13:20 4,3 C 63 % 1032,9 hPa 0,0 l/m 2,6 km/h (1 Bft) N-NW 337 -2,1 C 5,4 C 2,3 km/h (1 Bft)
10.12.2013 13:25 4,0 C 63 % 1032,9 hPa 0,0 l/m 2,1 km/h (1 Bft) NO 45 -2,4 C 5,4 C 1,6 km/h (1 Bft)
10.12.2013 13:30 4,1 C 64 % 1032,9 hPa 0,0 l/m 1,3 km/h (1 Bft) N-NO 22 -2,1 C 5,4 C 4,0 km/h (1 Bft)
10.12.2013 13:35 4,2 C 64 % 1032,9 hPa 0,0 l/m 1,6 km/h (1 Bft) NO 45 -2,0 C 5,5 C 2,9 km/h (1 Bft)
10.12.2013 13:40 4,5 C 64 % 1032,9 hPa 0,0 l/m 2,1 km/h (1 Bft) NO 45 -1,7 C 6,8 C 0,0 km/h (0 Bft)
10.12.2013 13:45 4,6 C 64 % 1032,6 hPa 0,0 l/m 1,8 km/h (1 Bft) NO 45 -1,6 C 8,7 C 2,1 km/h (1 Bft)
10.12.2013 13:50 4,8 C 64 % 1032,6 hPa 0,0 l/m 1,9 km/h (1 Bft) NO 45 -1,4 C 10,5 C 4,0 km/h (1 Bft)
10.12.2013 13:55 4,9 C 63 % 1032,6 hPa 0,0 l/m 2,4 km/h (1 Bft) N-NO 22 -1,5 C 11,2 C 4,7 km/h (1 Bft)
10.12.2013 14:00 5,7 C 60 % 1032,6 hPa 0,0 l/m 2,6 km/h (1 Bft) NO 45 -1,4 C 11,6 C 4,8 km/h (1 Bft)
10.12.2013 14:05 6,0 C 58 % 1032,6 hPa 0,0 l/m 2,7 km/h (1 Bft) O-NO 67 -1,6 C 11,8 C 4,2 km/h (1 Bft)
10.12.2013 14:10 5,4 C 58 % 1032,6 hPa 0,0 l/m 2,3 km/h (1 Bft) NO 45 -2,2 C 12,0 C 3,2 km/h (1 Bft)
10.12.2013 14:15 5,2 C 59 % 1032,6 hPa 0,0 l/m 1,8 km/h (1 Bft) O 90 -2,1 C 12,0 C 2,1 km/h (1 Bft)
10.12.2013 14:20 4,9 C 59 % 1032,6 hPa 0,0 l/m 1,1 km/h (1 Bft) N-NO 22 -2,4 C 10,7 C 2,7 km/h (1 Bft)
10.12.2013 14:25 4,8 C 60 % 1032,8 hPa 0,0 l/m 1,3 km/h (1 Bft) NO 45 -2,3 C 9,6 C 1,9 km/h (1 Bft)
10.12.2013 14:30 4,5 C 61 % 1032,8 hPa 0,0 l/m 1,4 km/h (1 Bft) NO 45 -2,4 C 8,5 C 0,0 km/h (0 Bft)
10.12.2013 14:35 4,3 C 62 % 1032,8 hPa 0,0 l/m 1,0 km/h (0 Bft) NO 45 -2,3 C 9,1 C 0,0 km/h (0 Bft)
10.12.2013 14:40 4,5 C 62 % 1032,8 hPa 0,0 l/m 1,6 km/h (1 Bft) NO 45 -2,1 C 10,2 C 2,6 km/h (1 Bft)
10.12.2013 14:45 4,4 C 62 % 1033,1 hPa 0,0 l/m 2,3 km/h (1 Bft) NO 45 -2,2 C 10,2 C 2,1 km/h (1 Bft)
10.12.2013 14:50 4,4 C 63 % 1033,1 hPa 0,0 l/m 1,9 km/h (1 Bft) N-NO 22 -2,0 C 9,2 C 1,6 km/h (1 Bft)
10.12.2013 14:55 4,5 C 63 % 1033,1 hPa 0,0 l/m 1,8 km/h (1 Bft) N 360 -1,9 C 8,8 C 4,8 km/h (1 Bft)
10.12.2013 15:00 4,3 C 63 % 1033,1 hPa 0,0 l/m 2,3 km/h (1 Bft) N-NO 22 -2,1 C 8,0 C 4,0 km/h (1 Bft)
10.12.2013 15:05 4,4 C 63 % 1033,1 hPa 0,0 l/m 2,7 km/h (1 Bft) N 360 -2,0 C 7,2 C 1,8 km/h (1 Bft)
10.12.2013 15:10 4,5 C 62 % 1033,1 hPa 0,0 l/m 2,3 km/h (1 Bft) O-NO 67 -2,1 C 6,2 C 3,1 km/h (1 Bft)
10.12.2013 15:15 4,5 C 62 % 1033,1 hPa 0,0 l/m 2,6 km/h (1 Bft) NO 45 -2,1 C 5,8 C 3,5 km/h (1 Bft)
10.12.2013 15:20 4,3 C 63 % 1033,1 hPa 0,0 l/m 4,2 km/h (1 Bft) O 90 -2,1 C 4,7 C 6,1 km/h (2 Bft)
10.12.2013 15:25 4,4 C 63 % 1033,1 hPa 0,0 l/m 4,5 km/h (1 Bft) O 90 -2,0 C 4,3 C 5,5 km/h (1 Bft)
10.12.2013 15:30 4,4 C 63 % 1033,1 hPa 0,0 l/m 4,5 km/h (1 Bft) NO 45 -2,0 C 3,9 C 5,3 km/h (1 Bft)
10.12.2013 15:35 4,2 C 63 % 1033,1 hPa 0,0 l/m 4,3 km/h (1 Bft) O 90 -2,2 C 4,1 C 5,1 km/h (1 Bft)
10.12.2013 15:40 4,0 C 64 % 1033,1 hPa 0,0 l/m 4,0 km/h (1 Bft) O-NO 67 -2,2 C 3,7 C 3,4 km/h (1 Bft)
10.12.2013 15:45 3,9 C 65 % 1033,2 hPa 0,0 l/m 3,7 km/h (1 Bft) O 90 -2,1 C 3,6 C 3,7 km/h (1 Bft)
10.12.2013 15:50 3,8 C 66 % 1033,2 hPa 0,0 l/m 3,2 km/h (1 Bft) O-NO 67 -2,0 C 3,6 C 2,9 km/h (1 Bft)
10.12.2013 15:55 3,6 C 66 % 1033,2 hPa 0,0 l/m 3,1 km/h (1 Bft) NO 45 -2,1 C 3,4 C 2,7 km/h (1 Bft)
10.12.2013 16:00 3,0 C 66 % 1033,2 hPa 0,0 l/m 1,6 km/h (1 Bft) O 90 -2,7 C 3,2 C 0,0 km/h (0 Bft)
10.12.2013 16:05 2,2 C 67 % 1033,3 hPa 0,0 l/m 0,3 km/h (0 Bft) O 90 -3,3 C 2,8 C 0,0 km/h (0 Bft)
10.12.2013 16:10 2,1 C 69 % 1033,3 hPa 0,0 l/m 0,0 km/h (0 Bft) O 90 -3,0 C 2,2 C 0,0 km/h (0 Bft)
10.12.2013 16:15 2,4 C 70 % 1033,3 hPa 0,0 l/m 0,2 km/h (0 Bft) O 90 -2,5 C 1,8 C 2,1 km/h (1 Bft)
10.12.2013 16:20 1,9 C 70 % 1033,3 hPa 0,0 l/m 0,2 km/h (0 Bft) O 90 -3,0 C 1,6 C 0,0 km/h (0 Bft)
10.12.2013 16:25 1,3 C 70 % 1033,2 hPa 0,0 l/m 0,2 km/h (0 Bft) O 90 -3,6 C 1,4 C 0,0 km/h (0 Bft)
10.12.2013 16:30 0,9 C 72 % 1033,2 hPa 0,0 l/m 0,0 km/h (0 Bft) NO 45 -3,6 C 0,9 C 0,0 km/h (0 Bft)
10.12.2013 16:35 0,9 C 73 % 1033,2 hPa 0,0 l/m 0,0 km/h (0 Bft) NO 45 -3,4 C 0,8 C 0,0 km/h (0 Bft)
10.12.2013 16:40 0,3 C 73 % 1033,2 hPa 0,0 l/m 0,0 km/h (0 Bft) NO 45 -4,0 C 0,5 C 0,0 km/h (0 Bft)
10.12.2013 16:45 0,3 C 75 % 1033,4 hPa 0,0 l/m 0,0 km/h (0 Bft) NO 45 -3,6 C 0,2 C 0,0 km/h (0 Bft)
10.12.2013 16:50 0,2 C 75 % 1033,4 hPa 0,0 l/m 0,0 km/h (0 Bft) NO 45 -3,7 C 0,0 C 0,0 km/h (0 Bft)
10.12.2013 16:55 0,1 C 76 % 1033,4 hPa 0,0 l/m 0,0 km/h (0 Bft) O-SO 112 -3,6 C 0,0 C 0,0 km/h (0 Bft)
10.12.2013 17:00 -0,6 C 76 % 1033,4 hPa 0,0 l/m 0,0 km/h (0 Bft) O-SO 112 -4,3 C -0,4 C 0,0 km/h (0 Bft)
10.12.2013 17:05 -0,7 C 76 % 1033,5 hPa 0,0 l/m 0,0 km/h (0 Bft) O 90 -4,4 C -0,6 C 0,0 km/h (0 Bft)
10.12.2013 17:10 -0,9 C 77 % 1033,5 hPa 0,0 l/m 0,0 km/h (0 Bft) O 90 -4,4 C -0,8 C 0,0 km/h (0 Bft)
10.12.2013 17:15 -1,1 C 77 % 1033,5 hPa 0,0 l/m 0,0 km/h (0 Bft) O 90 -4,6 C -0,9 C 0,0 km/h (0 Bft)
10.12.2013 17:20 -1,5 C 77 % 1033,5 hPa 0,0 l/m 0,0 km/h (0 Bft) O 90 -5,0 C -1,2 C 0,0 km/h (0 Bft)
10.12.2013 17:25 -1,7 C 77 % 1033,5 hPa 0,0 l/m 0,0 km/h (0 Bft) O 90 -5,2 C -1,5 C 0,0 km/h (0 Bft)
10.12.2013 17:28 -1,5 C 78 % 1033,5 hPa 0,0 l/m 0,0 km/h (0 Bft) O 90 -4,8 C -1,7 C 0,0 km/h (0 Bft)
10.12.2013 17:30 -1,5 C 78 % 1033,5 hPa 0,0 l/m 0,0 km/h (0 Bft) O 90 -4,8 C -1,7 C 0,0 km/h (0 Bft)
10.12.2013 17:35 -1,6 C 79 % 1033,5 hPa 0,0 l/m 0,0 km/h (0 Bft) O 90 -4,8 C -1,8 C 0,0 km/h (0 Bft)
10.12.2013 17:40 -1,7 C 79 % 1033,5 hPa 0,0 l/m 0,0 km/h (0 Bft) O 90 -4,8 C -1,9 C 0,0 km/h (0 Bft)
10.12.2013 17:45 -2,0 C 79 % 1033,4 hPa 0,0 l/m 0,0 km/h (0 Bft) O 90 -5,1 C -2,0 C 0,0 km/h (0 Bft)
10.12.2013 17:50 -2,2 C 79 % 1033,4 hPa 0,0 l/m 0,0 km/h (0 Bft) O 90 -5,3 C -2,3 C 0,0 km/h (0 Bft)
10.12.2013 17:55 -2,1 C 80 % 1033,4 hPa 0,0 l/m 0,0 km/h (0 Bft) O 90 -5,1 C -2,4 C 0,0 km/h (0 Bft)
10.12.2013 18:00 -1,9 C 81 % 1033,4 hPa 0,0 l/m 0,0 km/h (0 Bft) O 90 -4,7 C -2,4 C 0,0 km/h (0 Bft)
10.12.2013 18:05 -1,6 C 82 % 1033,2 hPa 0,0 l/m 0,0 km/h (0 Bft) O 90 -4,3 C -2,3 C 0,0 km/h (0 Bft)
10.12.2013 18:10 -2,3 C 82 % 1033,2 hPa 0,0 l/m 0,0 km/h (0 Bft) O 90 -4,9 C -2,3 C 0,0 km/h (0 Bft)
10.12.2013 18:15 -2,5 C 81 % 1033,2 hPa 0,0 l/m 0,0 km/h (0 Bft) O 90 -5,3 C -2,5 C 0,0 km/h (0 Bft)
10.12.2013 18:20 -2,5 C 82 % 1033,2 hPa 0,0 l/m 0,0 km/h (0 Bft) O 90 -5,1 C -2,6 C 0,0 km/h (0 Bft)
10.12.2013 18:25 -2,8 C 82 % 1033,4 hPa 0,0 l/m 0,0 km/h (0 Bft) O 90 -5,4 C -2,6 C 0,0 km/h (0 Bft)
10.12.2013 18:30 -2,5 C 83 % 1033,4 hPa 0,0 l/m 0,0 km/h (0 Bft) O 90 -5,0 C -2,8 C 0,0 km/h (0 Bft)
10.12.2013 18:35 -2,6 C 84 % 1033,4 hPa 0,0 l/m 0,0 km/h (0 Bft) O 90 -4,9 C -2,8 C 0,0 km/h (0 Bft)
10.12.2013 18:40 -2,5 C 84 % 1033,4 hPa 0,0 l/m 0,0 km/h (0 Bft) O 90 -4,8 C -2,7 C 0,0 km/h (0 Bft)
10.12.2013 18:45 -2,6 C 84 % 1033,6 hPa 0,0 l/m 0,0 km/h (0 Bft) O 90 -4,9 C -2,7 C 0,0 km/h (0 Bft)
10.12.2013 18:50 -2,9 C 84 % 1033,6 hPa 0,0 l/m 0,0 km/h (0 Bft) O 90 -5,2 C -2,8 C 0,0 km/h (0 Bft)
10.12.2013 18:55 -3,0 C 84 % 1033,6 hPa 0,0 l/m 0,0 km/h (0 Bft) O 90 -5,3 C -2,9 C 0,0 km/h (0 Bft)
10.12.2013 19:00 -3,0 C 84 % 1033,6 hPa 0,0 l/m 0,0 km/h (0 Bft) O 90 -5,3 C -3,0 C 0,0 km/h (0 Bft)
10.12.2013 19:05 -2,4 C 85 % 1033,4 hPa 0,0 l/m 0,0 km/h (0 Bft) O 90 -4,6 C -2,9 C 0,0 km/h (0 Bft)
10.12.2013 19:10 -2,4 C 85 % 1033,4 hPa 0,0 l/m 0,0 km/h (0 Bft) O 90 -4,6 C -2,9 C 0,0 km/h (0 Bft)
10.12.2013 19:15 -1,9 C 86 % 1033,4 hPa 0,0 l/m 0,5 km/h (0 Bft) NO 45 -3,9 C -2,9 C 2,1 km/h (1 Bft)
10.12.2013 19:20 -1,7 C 87 % 1033,4 hPa 0,0 l/m 0,6 km/h (0 Bft) O 90 -3,6 C -2,8 C 0,0 km/h (0 Bft)
10.12.2013 19:25 -1,5 C 87 % 1033,6 hPa 0,0 l/m 0,5 km/h (0 Bft) O 90 -3,4 C -2,8 C 2,3 km/h (1 Bft)
10.12.2013 19:30 -1,8 C 87 % 1033,6 hPa 0,0 l/m 0,5 km/h (0 Bft) O-SO 112 -3,7 C -2,8 C 0,0 km/h (0 Bft)
10.12.2013 19:35 -1,9 C 87 % 1033,6 hPa 0,0 l/m 0,3 km/h (0 Bft) O-SO 112 -3,8 C -2,9 C 0,0 km/h (0 Bft)
10.12.2013 19:40 -1,3 C 88 % 1033,6 hPa 0,0 l/m 0,6 km/h (0 Bft) O-NO 67 -3,0 C -2,9 C 4,8 km/h (1 Bft)
10.12.2013 19:45 -0,9 C 88 % 1033,4 hPa 0,0 l/m 2,4 km/h (1 Bft) NO 45 -2,6 C -2,8 C 6,3 km/h (2 Bft)
10.12.2013 19:50 -0,6 C 88 % 1033,4 hPa 0,0 l/m 4,7 km/h (1 Bft) NO 45 -2,3 C -4,1 C 7,4 km/h (2 Bft)
10.12.2013 19:55 -0,7 C 87 % 1033,4 hPa 0,0 l/m 5,3 km/h (1 Bft) NO 45 -2,6 C -4,3 C 6,4 km/h (2 Bft)
10.12.2013 20:00 -0,6 C 87 % 1033,4 hPa 0,0 l/m 4,2 km/h (1 Bft) N 360 -2,5 C -3,4 C 0,0 km/h (0 Bft)
10.12.2013 20:05 -0,9 C 87 % 1033,5 hPa 0,0 l/m 1,8 km/h (1 Bft) N-NO 22 -2,8 C -2,2 C 0,0 km/h (0 Bft)
10.12.2013 20:10 -1,7 C 86 % 1033,5 hPa 0,0 l/m 0,0 km/h (0 Bft) N-NO 22 -3,7 C -2,6 C 0,0 km/h (0 Bft)
10.12.2013 20:15 -2,0 C 86 % 1033,5 hPa 0,0 l/m 0,0 km/h (0 Bft) N-NO 22 -4,0 C -2,7 C 0,0 km/h (0 Bft)
10.12.2013 20:20 -1,7 C 86 % 1033,5 hPa 0,0 l/m 0,3 km/h (0 Bft) NO 45 -3,7 C -2,9 C 0,0 km/h (0 Bft)
10.12.2013 20:25 -2,0 C 86 % 1033,6 hPa 0,0 l/m 0,3 km/h (0 Bft) NO 45 -4,0 C -2,9 C 0,0 km/h (0 Bft)
10.12.2013 20:30 -2,5 C 86 % 1033,6 hPa 0,0 l/m 0,0 km/h (0 Bft) NO 45 -4,5 C -3,0 C 0,0 km/h (0 Bft)
10.12.2013 20:35 -2,9 C 86 % 1033,6 hPa 0,0 l/m 0,0 km/h (0 Bft) NO 45 -4,9 C -3,1 C 0,0 km/h (0 Bft)
10.12.2013 20:40 -3,1 C 86 % 1033,6 hPa 0,0 l/m 0,0 km/h (0 Bft) NO 45 -5,1 C -3,2 C 0,0 km/h (0 Bft)
10.12.2013 20:45 -3,2 C 86 % 1033,8 hPa 0,0 l/m 0,0 km/h (0 Bft) NO 45 -5,2 C -3,3 C 0,0 km/h (0 Bft)
10.12.2013 20:50 -2,9 C 86 % 1033,8 hPa 0,0 l/m 0,5 km/h (0 Bft) O 90 -4,9 C -3,4 C 0,0 km/h (0 Bft)
10.12.2013 20:55 -2,0 C 87 % 1033,8 hPa 0,0 l/m 1,3 km/h (1 Bft) O 90 -3,9 C -3,1 C 2,9 km/h (1 Bft)
10.12.2013 21:00 -1,6 C 88 % 1033,8 hPa 0,0 l/m 2,3 km/h (1 Bft) NO 45 -3,3 C -2,9 C 3,9 km/h (1 Bft)
10.12.2013 21:05 -2,2 C 88 % 1034,0 hPa 0,0 l/m 1,8 km/h (1 Bft) NO 45 -3,9 C -2,8 C 0,0 km/h (0 Bft)
10.12.2013 21:10 -3,2 C 87 % 1034,0 hPa 0,0 l/m 0,3 km/h (0 Bft) N-NO 22 -5,0 C -3,1 C 0,0 km/h (0 Bft)
10.12.2013 21:15 -3,2 C 87 % 1034,0 hPa 0,0 l/m 0,2 km/h (0 Bft) N-NO 22 -5,0 C -3,3 C 2,1 km/h (1 Bft)
10.12.2013 21:20 -3,4 C 87 % 1034,0 hPa 0,0 l/m 0,2 km/h (0 Bft) N-NO 22 -5,2 C -3,3 C 0,0 km/h (0 Bft)
10.12.2013 21:25 -3,5 C 87 % 1034,1 hPa 0,0 l/m 0,2 km/h (0 Bft) N-NO 22 -5,3 C -3,4 C 0,0 km/h (0 Bft)
10.12.2013 21:30 -3,3 C 87 % 1034,1 hPa 0,0 l/m 0,0 km/h (0 Bft) O-SO 112 -5,1 C -3,5 C 0,0 km/h (0 Bft)
10.12.2013 21:35 -3,7 C 87 % 1034,1 hPa 0,0 l/m 0,0 km/h (0 Bft) O-SO 112 -5,5 C -3,5 C 0,0 km/h (0 Bft)
10.12.2013 21:40 -3,7 C 87 % 1034,1 hPa 0,0 l/m 0,0 km/h (0 Bft) O 90 -5,5 C -3,4 C 0,0 km/h (0 Bft)
10.12.2013 21:45 -3,5 C 87 % 1034,2 hPa 0,0 l/m 0,0 km/h (0 Bft) O-SO 112 -5,3 C -3,4 C 0,0 km/h (0 Bft)
10.12.2013 21:50 -3,6 C 88 % 1034,2 hPa 0,0 l/m 0,0 km/h (0 Bft) O 90 -5,3 C -3,6 C 0,0 km/h (0 Bft)
10.12.2013 21:55 -3,9 C 88 % 1034,2 hPa 0,0 l/m 0,0 km/h (0 Bft) O 90 -5,6 C -3,6 C 0,0 km/h (0 Bft)
10.12.2013 22:00 -3,9 C 88 % 1034,2 hPa 0,0 l/m 0,0 km/h (0 Bft) O 90 -5,6 C -3,8 C 0,0 km/h (0 Bft)
10.12.2013 22:05 -4,3 C 87 % 1034,4 hPa 0,0 l/m 0,0 km/h (0 Bft) O 90 -6,1 C -3,8 C 0,0 km/h (0 Bft)
10.12.2013 22:10 -3,8 C 88 % 1034,4 hPa 0,0 l/m 0,0 km/h (0 Bft) O 90 -5,5 C -3,8 C 0,0 km/h (0 Bft)
10.12.2013 22:15 -3,9 C 88 % 1034,4 hPa 0,0 l/m 0,0 km/h (0 Bft) O 90 -5,6 C -3,8 C 0,0 km/h (0 Bft)
10.12.2013 22:20 -3,2 C 89 % 1034,4 hPa 0,0 l/m 0,0 km/h (0 Bft) O-SO 112 -4,7 C -3,9 C 0,0 km/h (0 Bft)
10.12.2013 22:25 -3,7 C 88 % 1034,3 hPa 0,0 l/m 0,0 km/h (0 Bft) NO 45 -5,4 C -3,9 C 0,0 km/h (0 Bft)
10.12.2013 22:29 -4,0 C 88 % 1034,3 hPa 0,0 l/m 0,0 km/h (0 Bft) NO 45 -5,7 C -4,0 C 0,0 km/h (0 Bft)
10.12.2013 22:30 -4,0 C 88 % 1034,3 hPa 0,0 l/m 0,0 km/h (0 Bft) NO 45 -5,7 C -4,0 C 0,0 km/h (0 Bft)
10.12.2013 22:35 -3,9 C 88 % 1034,3 hPa 0,0 l/m 0,0 km/h (0 Bft) N-NO 22 -5,6 C -3,9 C 0,0 km/h (0 Bft)
10.12.2013 22:40 -4,0 C 88 % 1034,3 hPa 0,0 l/m 0,0 km/h (0 Bft) N-NO 22 -5,7 C -3,9 C 0,0 km/h (0 Bft)
10.12.2013 22:45 -3,7 C 88 % 1034,4 hPa 0,0 l/m 0,0 km/h (0 Bft) O-SO 112 -5,4 C -4,0 C 0,0 km/h (0 Bft)
10.12.2013 22:50 -3,8 C 88 % 1034,4 hPa 0,0 l/m 0,0 km/h (0 Bft) O-NO 67 -5,5 C -4,0 C 0,0 km/h (0 Bft)
10.12.2013 22:55 -3,6 C 88 % 1034,4 hPa 0,0 l/m 0,0 km/h (0 Bft) O-NO 67 -5,3 C -4,1 C 0,0 km/h (0 Bft)
10.12.2013 23:00 -3,4 C 89 % 1034,4 hPa 0,0 l/m 0,0 km/h (0 Bft) O-SO 112 -4,9 C -4,1 C 0,0 km/h (0 Bft)
10.12.2013 23:05 -2,6 C 89 % 1034,3 hPa 0,0 l/m 1,0 km/h (0 Bft) O 90 -4,2 C -3,9 C 3,7 km/h (1 Bft)
10.12.2013 23:10 -3,2 C 89 % 1034,3 hPa 0,0 l/m 2,1 km/h (1 Bft) O-NO 67 -4,7 C -3,5 C 0,0 km/h (0 Bft)
10.12.2013 23:15 -3,7 C 89 % 1034,3 hPa 0,0 l/m 1,3 km/h (1 Bft) O-NO 67 -5,2 C -3,7 C 0,0 km/h (0 Bft)
10.12.2013 23:20 -3,5 C 89 % 1034,3 hPa 0,0 l/m 0,2 km/h (0 Bft) NO 45 -5,0 C -3,8 C 0,0 km/h (0 Bft)
10.12.2013 23:25 -4,0 C 89 % 1034,3 hPa 0,0 l/m 0,0 km/h (0 Bft) O 90 -5,5 C -3,9 C 0,0 km/h (0 Bft)
10.12.2013 23:30 -4,1 C 89 % 1034,3 hPa 0,0 l/m 0,0 km/h (0 Bft) NO 45 -5,6 C -4,2 C 0,0 km/h (0 Bft)
10.12.2013 23:35 -4,1 C 89 % 1034,3 hPa 0,0 l/m 0,0 km/h (0 Bft) NO 45 -5,6 C -4,2 C 0,0 km/h (0 Bft)
10.12.2013 23:40 -3,8 C 89 % 1034,3 hPa 0,0 l/m 0,0 km/h (0 Bft) O 90 -5,3 C -4,3 C 0,0 km/h (0 Bft)
10.12.2013 23:45 -3,2 C 89 % 1034,1 hPa 0,0 l/m 0,0 km/h (0 Bft) O-SO 112 -4,7 C -4,2 C 0,0 km/h (0 Bft)
10.12.2013 23:50 -4,1 C 89 % 1034,1 hPa 0,0 l/m 0,0 km/h (0 Bft) N-NO 22 -5,6 C -4,1 C 0,0 km/h (0 Bft)
10.12.2013 23:55 -4,3 C 89 % 1034,1 hPa 0,0 l/m 0,0 km/h (0 Bft) N-NO 22 -5,8 C -4,2 C 0,0 km/h (0 Bft)
_ Min-Zeit 23:55 14:10 14:20 - 23:55 - - 06:45 23:40 23:55
Minimum _ -4,3 C 58 % 1032,6 hPa - 0,0 km/h (0 Bft) - - -7,0 C -4,3 C 0,0 km/h (0 Bft)
_ Max-Zeit 14:05 23:55 23:00 23:55 19:55 - - 13:50 14:15 11:40
Maximum _ 6,0 C 89 % 1034,4 hPa 0,0 l/m 5,3 km/h
NO (1 Bft)
- - -1,4 C 12,0 C 7,6 km/h
N-NO (2 Bft)
Durchschnitt _ -0,7 C 77 % 1033,3 hPa #0,0 l/m 0,7 km/h (0 Bft) NO - -4,2 C -0,4 C 0,9 km/h (0 Bft)